2024-168B

Last updated on Tue Oct 08 2024 00:02:04 GMT+0000 (Coordinated Universal Time)

1 61186U 24168B 24281.08780907 -.00000057 00000+0 00000+0 0 9990 2 61186 54.9757 323.6127 0117625 177.4204 80.4960 1.82969119 320
UTC large
Height (km)
Speed (km/s)
/
Latitude / Longitude
Inclination (degrees)
Orbital Period (minutes)
Azimuth
Elevation
Range (km)
Doppler Factor

Next 0 passes for location: London (51.5072 / 0.1276)

Sorry there are no passes over London.